TimeCST,TemperatureF,Dew PointF,Humidity,Sea Level PressureIn,VisibilityMPH,Wind Direction,Wind SpeedMPH,Gust SpeedMPH,PrecipitationIn,Events,Conditions,WindDirDegrees,DateUTC
12:15 AM,47.5,40.1,76,30.05,10.0,NNW,11.5,-,N/A,,Overcast,330,2012-11-05 06:15:00
12:35 AM,46.4,40.5,80,30.05,10.0,NNW,11.5,-,N/A,,Overcast,330,2012-11-05 06:35:00
12:55 AM,45.7,39.9,80,30.04,7.0,NNW,11.5,-,N/A,,Overcast,330,2012-11-05 06:55:00
1:15 AM,45.3,40.1,82,30.05,7.0,NNW,15.0,-,N/A,,Light Drizzle,330,2012-11-05 07:15:00
1:35 AM,45.0,40.1,83,30.05,7.0,NNW,13.8,-,N/A,,Overcast,330,2012-11-05 07:35:00
1:55 AM,45.0,40.1,83,30.05,10.0,NNW,13.8,-,N/A,,Overcast,330,2012-11-05 07:55:00
2:15 AM,44.8,39.4,81,30.05,10.0,NNW,13.8,-,N/A,,Overcast,330,2012-11-05 08:15:00
2:35 AM,44.6,39.4,82,30.05,10.0,NW,15.0,-,N/A,,Overcast,320,2012-11-05 08:35:00
2:55 AM,44.8,39.4,81,30.05,10.0,NNW,16.1,-,N/A,,Overcast,330,2012-11-05 08:55:00
3:15 AM,43.9,38.3,81,30.05,10.0,NNW,13.8,20.7,N/A,,Overcast,330,2012-11-05 09:15:00
3:35 AM,43.7,38.3,81,30.05,10.0,NNW,15.0,-,N/A,,Overcast,340,2012-11-05 09:35:00
3:55 AM,43.7,38.5,82,30.05,10.0,NNW,13.8,-,N/A,,Overcast,340,2012-11-05 09:55:00
4:15 AM,43.7,38.5,82,30.06,10.0,North,13.8,-,N/A,,Overcast,350,2012-11-05 10:15:00
4:35 AM,43.7,38.3,81,30.07,10.0,NNW,16.1,-,N/A,,Overcast,340,2012-11-05 10:35:00
4:55 AM,43.7,37.8,80,30.07,10.0,NNW,13.8,18.4,N/A,,Overcast,340,2012-11-05 10:55:00
5:15 AM,43.7,37.8,80,30.08,10.0,North,15.0,21.9,N/A,,Overcast,350,2012-11-05 11:15:00
5:35 AM,43.2,37.6,81,30.08,10.0,North,18.4,25.3,N/A,,Overcast,350,2012-11-05 11:35:00
5:55 AM,43.0,37.6,81,30.09,10.0,NNW,17.3,-,N/A,,Overcast,340,2012-11-05 11:55:00
6:15 AM,43.0,37.0,80,30.09,10.0,NNW,19.6,-,N/A,,Overcast,340,2012-11-05 12:15:00
6:35 AM,42.8,36.7,79,30.09,10.0,North,17.3,21.9,N/A,,Overcast,350,2012-11-05 12:35:00
6:55 AM,42.8,36.5,78,30.10,10.0,NNW,15.0,23.0,N/A,,Overcast,340,2012-11-05 12:55:00
7:15 AM,42.6,36.1,78,30.10,10.0,NNW,17.3,-,N/A,,Overcast,340,2012-11-05 13:15:00
7:35 AM,42.3,36.0,78,30.11,10.0,NNW,20.7,24.2,N/A,,Overcast,340,2012-11-05 13:35:00
7:55 AM,41.9,35.6,78,30.12,10.0,NNW,20.7,26.5,N/A,,Overcast,340,2012-11-05 13:55:00
8:15 AM,42.1,35.4,77,30.12,10.0,NNW,19.6,26.5,N/A,,Overcast,340,2012-11-05 14:15:00
8:35 AM,41.9,35.1,77,30.12,10.0,NNW,18.4,27.6,N/A,,Overcast,340,2012-11-05 14:35:00
8:55 AM,42.1,35.1,76,30.13,10.0,NNW,17.3,25.3,N/A,,Overcast,340,2012-11-05 14:55:00
9:15 AM,41.9,34.9,76,30.14,10.0,NNW,19.6,25.3,N/A,,Overcast,340,2012-11-05 15:15:00
9:35 AM,41.9,34.7,76,30.14,10.0,NNW,19.6,-,N/A,,Overcast,340,2012-11-05 15:35:00
9:55 AM,41.9,34.7,76,30.15,10.0,NNW,21.9,26.5,N/A,,Overcast,340,2012-11-05 15:55:00
10:15 AM,42.3,34.7,75,30.15,10.0,North,20.7,-,N/A,,Overcast,350,2012-11-05 16:15:00
10:35 AM,42.1,34.7,75,30.16,10.0,North,18.4,24.2,N/A,,Overcast,350,2012-11-05 16:35:00
10:55 AM,42.3,34.7,75,30.16,10.0,NNW,20.7,24.2,N/A,,Overcast,340,2012-11-05 16:55:00
11:15 AM,42.3,34.7,75,30.16,10.0,NNW,19.6,24.2,N/A,,Overcast,340,2012-11-05 17:15:00
11:35 AM,42.3,34.7,75,30.16,10.0,NNW,16.1,-,N/A,,Overcast,340,2012-11-05 17:35:00
11:55 AM,42.4,34.7,74,30.16,10.0,NNW,17.3,-,N/A,,Overcast,340,2012-11-05 17:55:00
12:15 PM,42.8,35.1,74,30.16,10.0,NNW,16.1,-,N/A,,Overcast,340,2012-11-05 18:15:00
12:35 PM,43.3,35.6,74,30.16,10.0,North,17.3,-,N/A,,Overcast,350,2012-11-05 18:35:00
12:55 PM,43.2,35.2,74,30.15,10.0,North,15.0,20.7,N/A,,Overcast,360,2012-11-05 18:55:00
1:15 PM,43.7,35.6,73,30.15,10.0,North,16.1,-,N/A,,Overcast,360,2012-11-05 19:15:00
1:35 PM,43.7,35.6,73,30.14,7.0,North,13.8,-,N/A,,Overcast,360,2012-11-05 19:35:00
1:55 PM,44.4,35.8,72,30.13,7.0,North,12.7,-,N/A,,Overcast,350,2012-11-05 19:55:00
2:15 PM,44.8,35.6,70,30.13,7.0,North,15.0,-,N/A,,Overcast,350,2012-11-05 20:15:00
2:35 PM,44.2,35.6,72,30.13,7.0,North,16.1,-,N/A,,Overcast,350,2012-11-05 20:35:00
2:55 PM,44.2,35.4,71,30.12,10.0,North,13.8,-,N/A,,Overcast,350,2012-11-05 20:55:00
3:15 PM,44.4,35.4,71,30.12,10.0,North,13.8,-,N/A,,Overcast,350,2012-11-05 21:15:00
3:35 PM,44.2,35.4,71,30.13,10.0,NNW,10.4,-,N/A,,Overcast,340,2012-11-05 21:35:00
3:55 PM,44.2,34.9,70,30.14,10.0,NNW,10.4,-,N/A,,Overcast,340,2012-11-05 21:55:00
4:15 PM,44.1,34.7,70,30.14,10.0,North,11.5,-,N/A,,Overcast,350,2012-11-05 22:15:00
4:35 PM,43.7,34.7,71,30.13,10.0,North,10.4,-,N/A,,Overcast,360,2012-11-05 22:35:00
4:55 PM,43.3,34.5,71,30.12,7.0,North,9.2,-,N/A,,Overcast,10,2012-11-05 22:55:00
5:15 PM,43.2,34.7,72,30.13,10.0,North,9.2,-,N/A,,Overcast,350,2012-11-05 23:15:00
5:35 PM,43.0,34.7,73,30.13,10.0,North,5.8,-,N/A,,Overcast,10,2012-11-05 23:35:00
5:55 PM,42.8,34.7,73,30.12,10.0,NNE,5.8,-,N/A,,Overcast,30,2012-11-05 23:55:00
6:15 PM,42.8,34.7,73,30.13,10.0,NNE,3.5,-,N/A,,Overcast,30,2012-11-06 00:15:00
6:35 PM,42.8,34.7,73,30.14,10.0,NNE,3.5,-,N/A,,Overcast,20,2012-11-06 00:35:00
6:55 PM,42.4,34.7,74,30.13,10.0,NNE,4.6,-,N/A,,Overcast,30,2012-11-06 00:55:00
7:15 PM,42.4,34.9,75,30.14,10.0,Calm,Calm,-,N/A,,Overcast,0,2012-11-06 01:15:00
7:35 PM,42.3,34.9,75,30.14,10.0,NNW,3.5,-,N/A,,Overcast,340,2012-11-06 01:35:00
7:55 PM,42.1,35.1,76,30.13,10.0,Calm,Calm,-,N/A,,Overcast,0,2012-11-06 01:55:00
8:15 PM,41.9,35.1,77,30.12,10.0,Calm,Calm,-,N/A,,Overcast,0,2012-11-06 02:15:00
8:35 PM,41.9,34.9,76,30.12,7.0,NW,3.5,-,N/A,,Overcast,310,2012-11-06 02:35:00
8:55 PM,41.9,34.9,76,30.12,7.0,Calm,Calm,-,N/A,,Overcast,0,2012-11-06 02:55:00
9:15 PM,41.9,35.1,77,30.12,7.0,Calm,Calm,-,N/A,,Overcast,0,2012-11-06 03:15:00
9:35 PM,42.1,34.9,76,30.12,10.0,Calm,Calm,-,N/A,,Overcast,0,2012-11-06 03:35:00
9:55 PM,41.9,34.9,76,30.11,7.0,Calm,Calm,-,N/A,,Overcast,0,2012-11-06 03:55:00
10:15 PM,41.4,34.9,78,30.11,7.0,WSW,3.5,-,N/A,,Overcast,240,2012-11-06 04:15:00
10:35 PM,41.4,34.9,78,30.10,10.0,South,3.5,-,N/A,,Overcast,190,2012-11-06 04:35:00
10:55 PM,41.7,35.1,77,30.09,10.0,South,4.6,-,N/A,,Overcast,170,2012-11-06 04:55:00
11:15 PM,41.9,35.2,77,30.06,10.0,SSE,8.1,-,N/A,,Overcast,160,2012-11-06 05:15:00
11:35 PM,41.9,35.2,77,30.07,10.0,South,4.6,-,N/A,,Overcast,190,2012-11-06 05:35:00
11:55 PM,40.8,34.7,79,30.06,7.0,South,5.8,-,N/A,,Mostly Cloudy,170,2012-11-06 05:55:00